Flag for British Virgin Islands Weather past 2 weeks in Road Town, Tortola, British Virgin Islands

Now
88 °F

Scattered clouds.


Feels Like: 96 °F
Forecast: 80 / 83 °F
Wind: 10 mph from Southeast

Location: Beef Island - Tortola

Current Time: Jul 30, 2014 at 1:37:10 PM

Latest Report: Jul 30, 2014 at 1:00 PM


Visibility: N/A

Pressure: 30.04 "Hg

Humidity: 62%

Dew point: 73 °F

Location of Road TownLocation

Historic Weather in Road Town — Graph

°F

Road Town temperature yesterday

Maximum temperature yesterday: 88 °F (at 12:00 PM)
Minimum temperature yesterday: 82 °F (at 7:00 AM)
Average temperature yesterday: 85 °F

Past Weeks' High & Low Weather Summary

 TemperatureHumidityPressure
High91 °F (Jul 23, 12:00 PM)100% (Jul 24, 6:00 PM)30.12 "Hg (Jul 24, 6:00 PM)
Low73 °F (Jul 26, 12:00 PM)59% (Jul 23, 12:00 PM)30.01 "Hg (Jul 25, 4:00 PM)
Average85 °F72%30.07 "Hg
* Reported Jul 15 12:00 Noon — Jul 30 12:00 Noon, Road Town, Weather by CustomWeather, © 2014

Note: Actual official high and low records may vary slightly from our data, if they occured in-between our weather recording intervals... More about our weather records

Advertising

Road Town weather history for previous 24 hours

 ConditionsComfort  
Time TempWeatherWind HumidityBarometerVisibility
12:00 PM
Jul 30
86 °FPassing clouds.9 mph66%30.04 "HgN/A
11:00 AM88 °FPassing clouds.10 mph62%30.07 "HgN/A
10:00 AM86 °FScattered clouds.10 mph66%30.07 "HgN/A
9:00 AM84 °FScattered clouds.8 mph70%30.07 "HgN/A
8:00 AM82 °FScattered clouds.10 mph70%30.04 "HgN/A
7:00 AM82 °FScattered clouds.7 mph74%30.04 "HgN/A
10:00 PM
Jul 29
82 °FPassing clouds.9 mph79%30.07 "HgN/A
9:00 PM82 °FPassing clouds.9 mph79%30.04 "HgN/A
8:00 PM82 °FPassing clouds.6 mph79%30.04 "HgN/A
7:00 PM82 °FPassing clouds.3 mph74%30.04 "HgN/A
6:00 PM84 °FScattered clouds.9 mph70%30.01 "HgN/A
5:00 PM86 °FScattered clouds.12 mph62%30.01 "HgN/A
4:00 PM88 °FScattered clouds.8 mph62%30.01 "HgN/A
3:00 PM88 °FScattered clouds.8 mph62%30.01 "HgN/A
2:00 PM86 °FScattered clouds.9 mph70%30.04 "HgN/A
1:00 PM88 °FScattered clouds.9 mph66%30.04 "HgN/A
Weather by CustomWeather, © 2014

See weather overviewHow to use our weather pages